Temp
67 68 70 70 70 70 69 69 70 70 69 69 70 69 68 69 70 72 72 72 71 71 71 70 69 69 67 67 66 67 66 67
66 67 67 67 66 68 68 68 67 67 68 67 67 68 68 68 69 69 71 72 71 71 69 69 69 68 67 66 66 66 65 66
64 64 64 64 65 67 67 67 68 67 67 67 65 64 64 66 67 68 69 70 69 69 69 68 67 67 66 66 66 65 65 65
65 62 62 62 66 66 64 66 66 65 64 64 63 64 63 65 67 67 68 68 69 68 67 67 67 65 65 66 63 65 64 64
62 62 62 61 62 63 63 62 61 62 62 63 63 62 63 63 65 66 66 68 66 66 65 65 64 64 62 61 63 65 63 64
61 62 63 62 64 61 61 61 63 63 62 63 63 62 63 64 65 65 63 64 64 65 61 64 62 63 63 62 62 63 62 63
61 61 61 63 64 62 60 61 63 63 62 63 64 63 62 63 64 64 63 63 63 61 60 62 62 62 61 61 60 60 62 63
60 61 60 61 61 63 63 62 64 63 62 63 65 64 63 63 63 63 62 63 63 63 60 60 59 61 60 60 60 60 62 60
60 60 60 61 60 60 62 62 63 63 62 63 64 65 64 64 63 62 62 63 62 60 57 59 59 61 60 60 60 60 60 60
60 62 60 60 59 59 60 60 62 63 63 64 64 65 65 64 63 61 61 61 61 59 59 58 57 59 58 59 59 60 60 59
60 60 59 59 58 58 58 59 60 61 63 64 64 64 64 64 62 61 60 60 61 60 56 59 56 58 58 57 57 59 59 61
61 60 59 59 59 58 56 56 58 58 59 62 63 64 64 64 62 60 60 59 58 60 59 58 56 59 62 58 57 56 59 59
60 59 60 59 58 56 56 56 56 56 56 57 61 63 63 63 62 59 59 60 61 61 60 60 57 58 58 54 55 55 56 58
61 60 60 60 60 59 58 57 56 56 57 56 58 62 63 63 62 59 59 60 61 61 62 57 56 60 57 55 51 54 56 57
60 60 60 60 57 55 55 55 55 54 55 56 58 61 62 62 61 60 59 57 59 61 62 62 58 54 61 55 49 49 51 52
59 61 60 60 56 55 55 54 53 55 55 56 58 61 61 61 62 60 59 58 60 60 62 63 60 57 55 56 55 54 50 47
60 60 59 59 56 56 54 53 53 53 55 55 56 58 59 61 60 60 59 59 58 57 58 59 60 58 59 54 53 53 53 50
59 58 58 59 56 55 55 56 55 52 54 54 55 56 56 58 59 58 58 57 56 55 56 58 57 58 57 54 54 53 52 52
58 58 57 58 56 55 57 57 56 52 55 55 55 54 55 56 58 57 57 58 57 56 56 57 57 58 57 57 56 56 56 56
58 57 57 58 57 55 59 59 55 54 54 57 56 56 57 56 57 59 59 59 58 58 57 57 56 56 56 56 58 57 57 56
MSLP
1008.81 1008.95 1009.24 1009.43 1009.51 1009.89 1010.34 1010.76 1011.23 1011.29 1011.71 1011.97 1012.42 1012.59 1013.06 1014.17 1014.35 1014.02 1014.48 1014.65 1015.20 1015.83 1016.15 1016.49 1016.87 1017.41 1017.83 1018.25 1018.51 1018.81 1019.19 1019.28
1008.93 1008.91 1009.11 1009.44 1009.64 1009.91 1010.32 1010.71 1011.21 1011.74 1012.11 1012.35 1012.46 1012.93 1013.11 1012.97 1013.81 1014.25 1015.01 1014.83 1015.30 1016.08 1016.50 1016.73 1017.20 1017.76 1018.19 1018.67 1018.78 1019.11 1019.41 1019.56
1008.89 1009.06 1009.18 1009.40 1009.73 1010.06 1010.39 1010.99 1011.24 1011.61 1012.13 1012.46 1012.83 1013.24 1013.44 1013.50 1013.67 1013.59 1014.75 1014.91 1015.21 1016.00 1016.52 1016.83 1017.35 1017.98 1018.32 1018.81 1019.06 1019.38 1019.60 1019.89
1008.85 1009.14 1009.38 1009.51 1009.73 1010.14 1010.59 1010.97 1011.22 1011.54 1011.96 1012.39 1013.01 1013.18 1013.20 1013.62 1013.63 1013.91 1014.37 1014.94 1015.21 1015.84 1016.49 1017.05 1017.70 1018.38 1018.77 1018.98 1019.32 1019.66 1019.91 1020.02
1008.68 1009.02 1009.34 1009.53 1009.82 1010.24 1010.61 1011.03 1011.26 1011.66 1011.96 1012.31 1012.76 1013.11 1013.55 1013.27 1013.56 1013.38 1014.46 1014.29 1015.24 1016.08 1016.83 1017.20 1017.89 1018.45 1019.02 1019.37 1019.41 1019.94 1020.09 1020.47
1008.44 1008.79 1009.24 1009.48 1009.70 1010.36 1010.58 1011.01 1011.28 1011.53 1011.81 1012.09 1012.60 1012.78 1012.85 1012.93 1013.06 1013.58 1014.32 1014.55 1015.42 1016.18 1017.15 1017.42 1017.91 1018.52 1019.08 1019.37 1019.92 1020.15 1020.43 1020.73
1008.11 1008.49 1008.93 1009.26 1009.62 1010.19 1010.55 1010.93 1011.02 1011.26 1011.59 1011.88 1012.04 1011.72 1012.43 1012.26 1012.81 1013.61 1014.24 1014.95 1015.54 1016.49 1017.02 1017.48 1018.06 1018.51 1019.22 1019.46 1020.06 1020.40 1020.59 1020.88
1007.73 1008.12 1008.64 1008.99 1009.39 1009.83 1010.21 1010.52 1010.74 1011.18 1011.48 1011.79 1011.80 1011.71 1012.00 1012.44 1013.18 1013.92 1014.65 1015.24 1015.65 1016.30 1017.09 1017.43 1018.12 1018.61 1019.22 1019.78 1020.20 1020.54 1020.74 1021.19
1007.26 1007.69 1008.39 1008.67 1009.21 1009.69 1009.97 1010.19 1010.42 1010.94 1011.32 1011.69 1011.91 1012.14 1011.95 1012.55 1013.06 1014.01 1014.68 1015.25 1015.75 1016.38 1017.43 1017.71 1018.22 1018.65 1019.42 1019.87 1020.11 1020.75 1021.05 1021.51
1007.15 1007.52 1008.14 1008.48 1009.01 1009.44 1009.83 1010.08 1010.29 1010.60 1011.03 1011.46 1011.86 1012.09 1012.43 1012.78 1013.50 1014.00 1014.57 1015.02 1015.95 1016.54 1017.31 1017.93 1018.41 1018.91 1019.54 1019.89 1020.26 1020.72 1021.22 1021.84
1006.85 1007.34 1007.95 1008.42 1008.81 1009.27 1009.77 1010.02 1010.23 1010.50 1010.79 1011.14 1011.53 1011.91 1012.27 1012.66 1013.24 1013.84 1014.39 1015.05 1015.82 1016.55 1017.29 1017.66 1018.41 1018.95 1019.47 1020.01 1020.64 1020.94 1021.38 1021.84
1006.55 1007.26 1007.82 1008.48 1008.92 1009.36 1009.88 1010.19 1010.28 1010.60 1010.84 1010.80 1011.11 1011.46 1012.04 1012.35 1012.94 1013.67 1014.40 1015.16 1015.80 1016.13 1016.81 1017.69 1018.24 1018.77 1019.40 1020.31 1020.78 1021.09 1021.41 1021.71
1006.31 1007.04 1007.70 1008.31 1008.78 1009.29 1009.92 1010.06 1010.25 1010.61 1010.94 1011.03 1010.92 1011.13 1011.52 1011.93 1012.68 1013.54 1014.05 1014.89 1015.24 1015.89 1016.68 1017.08 1018.23 1018.71 1019.75 1020.92 1021.39 1021.71 1021.76 1021.99
1005.92 1006.64 1007.25 1007.93 1008.35 1008.86 1009.44 1009.81 1010.08 1010.35 1010.74 1010.90 1010.94 1010.94 1010.89 1011.56 1012.26 1012.79 1014.12 1014.79 1015.47 1015.81 1015.93 1017.11 1017.96 1018.40 1018.99 1020.16 1021.59 1022.19 1022.24 1022.19
1004.97 1005.92 1006.67 1007.47 1008.17 1008.68 1009.33 1009.73 1010.06 1010.38 1010.55 1010.74 1010.84 1010.79 1010.93 1011.26 1011.62 1012.63 1013.61 1014.54 1014.64 1015.62 1015.68 1016.28 1017.24 1018.48 1018.26 1018.81 1020.52 1021.22 1021.79 1022.11
1004.59 1005.52 1006.32 1007.12 1007.81 1008.26 1008.59 1009.13 1009.74 1010.07 1010.24 1010.58 1010.59 1010.51 1010.61 1011.32 1011.34 1012.16 1012.77 1014.07 1014.64 1015.14 1015.75 1015.98 1016.81 1017.69 1018.45 1018.63 1018.72 1019.60 1020.90 1022.11
1004.20 1005.30 1006.18 1006.87 1007.49 1007.81 1008.19 1008.88 1009.30 1009.71 1010.08 1010.51 1010.42 1010.52 1010.69 1010.94 1011.41 1011.72 1012.63 1013.63 1014.08 1014.69 1015.80 1015.76 1016.35 1017.40 1017.80 1018.85 1019.41 1019.50 1020.01 1020.90
1004.05 1005.03 1005.89 1006.48 1007.18 1007.54 1007.92 1008.51 1009.00 1009.61 1009.86 1010.21 1010.50 1010.69 1010.77 1010.91 1011.17 1012.01 1012.42 1012.68 1014.03 1014.62 1015.51 1015.72 1016.60 1016.82 1017.56 1018.65 1018.60 1018.90 1019.60 1019.87
1003.73 1004.58 1005.38 1006.04 1006.86 1007.30 1007.64 1008.14 1008.70 1009.32 1009.54 1009.94 1010.32 1010.77 1011.00 1011.08 1011.29 1011.82 1012.49 1013.17 1014.04 1014.96 1015.53 1016.36 1016.47 1016.98 1017.30 1017.47 1017.83 1018.20 1018.46 1018.87
1003.09 1003.96 1004.85 1005.57 1006.50 1007.05 1007.40 1007.88 1008.57 1009.12 1009.32 1009.66 1010.03 1010.45 1010.93 1011.41 1011.57 1012.10 1012.70 1013.26 1014.05 1014.74 1015.38 1015.92 1015.81 1016.34 1016.38 1016.94 1017.15 1017.66 1017.92 1018.22
Wind_Speed
6 6 6 7 8 11 11 16 16 18 18 17 19 23 24 7 7 8 15 19 19 20 21 19 20 19 18 17 17 16 10 8
6 6 6 5 3 8 13 15 13 12 15 13 16 18 20 24 19 8 17 22 20 19 18 17 17 18 18 16 15 14 9 9
5 5 5 6 5 6 13 14 15 13 12 14 13 7 8 11 12 16 15 17 20 19 18 15 17 19 20 17 13 6 8 5
9 6 6 5 5 5 5 6 5 4 5 7 7 10 9 7 13 16 18 20 21 21 17 16 16 9 9 12 5 6 5 6
6 6 6 6 5 4 3 2 3 3 6 7 6 7 7 7 5 7 9 21 9 11 11 8 11 9 6 4 6 6 5 4
7 7 8 6 5 4 4 4 5 5 4 5 5 6 9 9 7 8 5 6 9 8 5 8 9 9 8 8 6 6 4 4
9 8 7 6 7 5 4 5 6 6 4 4 7 6 7 5 9 6 4 5 8 7 7 8 9 9 8 9 6 6 6 4
9 8 7 7 5 7 6 5 5 5 4 4 6 8 8 6 7 8 6 6 8 9 8 7 7 8 8 8 8 6 7 4
12 10 8 8 7 5 5 4 5 5 6 6 5 9 12 11 8 8 7 7 7 8 7 5 7 6 9 7 8 6 6 5
10 9 9 9 7 6 4 5 4 4 6 6 8 7 11 10 8 8 7 7 5 6 9 8 7 8 7 7 6 7 7 5
12 10 10 9 7 5 5 5 4 3 3 7 10 10 10 9 8 8 9 8 8 7 4 8 7 7 8 6 5 6 7 6
12 10 9 8 6 5 3 3 3 3 3 3 9 10 12 10 8 9 8 8 6 7 10 4 4 8 9 7 5 4 6 6
14 14 13 8 6 5 3 3 2 2 2 4 4 10 13 11 9 10 8 9 11 10 8 12 4 5 7 5 4 3 2 4
17 15 14 11 8 7 4 4 2 2 2 3 4 6 11 12 10 11 12 8 9 9 12 6 3 9 7 5 3 1 1 3
19 18 15 12 9 6 4 5 3 1 1 1 5 7 8 10 13 12 11 7 9 9 11 11 10 2 12 5 4 3 3 2
15 17 15 13 10 7 9 5 6 3 3 1 3 8 9 7 12 14 14 13 11 8 8 9 8 9 2 2 4 5 4 2
15 14 13 15 11 9 7 6 4 4 5 4 3 4 6 9 9 11 16 11 9 9 6 7 6 6 7 3 1 2 2 3
17 17 14 16 11 9 11 10 8 5 6 5 3 3 3 7 10 10 11 13 8 6 3 5 6 5 5 5 4 5 4 4
17 18 16 14 12 11 11 10 10 9 9 6 7 4 3 6 10 13 11 13 9 8 8 9 11 14 13 8 4 3 4 4
18 19 17 15 13 12 10 10 7 7 8 8 6 6 5 5 7 9 10 13 11 10 7 6 6 5 11 9 7 6 4 4
Wind_Direction
156 162 182 195 192 179 157 147 146 136 132 130 135 135 148 195 208 190 179 160 146 148 142 137 133 132 127 124 122 118 116 118
167 167 152 150 175 167 152 153 154 145 138 139 136 153 163 164 178 191 212 157 146 150 141 136 133 137 130 127 123 117 120 116
170 169 157 143 135 154 154 164 164 162 170 173 160 166 163 170 180 176 213 166 150 145 144 133 139 140 137 134 127 123 124 117
181 171 159 143 137 137 130 152 164 146 157 173 171 178 184 200 180 189 195 183 158 149 128 126 132 137 136 125 128 128 119 116
173 169 162 149 143 139 135 135 146 157 161 174 171 161 193 184 210 168 204 168 154 140 125 131 136 139 132 128 125 135 122 125
176 167 166 166 148 152 155 150 173 184 190 181 185 188 196 190 184 165 162 145 142 142 133 141 128 134 137 128 139 140 123 132
185 166 171 168 155 157 157 179 189 191 178 168 211 173 174 186 131 140 139 152 151 142 140 143 135 135 139 135 135 133 128 137
181 172 171 161 144 158 164 174 179 169 175 175 163 150 149 157 147 155 149 170 162 151 151 145 136 140 136 144 141 138 138 134
182 170 172 163 159 160 150 166 168 167 179 168 184 172 161 170 166 165 165 168 163 144 127 123 135 138 144 144 138 139 140 138
173 174 173 160 165 159 160 160 166 170 176 175 187 178 174 169 171 165 157 143 150 165 147 148 140 142 145 146 142 143 146 132
170 172 174 163 150 145 145 158 149 165 165 182 190 183 180 175 171 162 157 154 162 161 136 155 145 142 138 130 140 149 155 154
164 169 165 152 135 120 102 130 131 154 205 195 184 187 184 178 168 157 158 159 163 165 153 133 134 145 138 138 145 134 162 165
169 165 171 157 150 138 154 164 157 148 198 226 238 188 184 185 166 155 158 177 175 166 153 142 133 133 118 88 61 80 132 172
171 171 167 172 173 170 167 166 154 134 158 240 227 221 188 191 172 166 172 171 166 172 165 145 112 162 149 133 134 78 227 197
174 171 167 174 166 133 117 96 77 122 176 207 236 227 183 186 171 164 165 163 166 182 177 169 157 192 162 134 136 180 126 158
163 169 170 175 163 160 161 164 171 179 149 172 204 199 186 197 170 169 174 170 179 172 179 177 148 168 106 74 84 135 165 159
161 161 168 175 168 166 155 164 163 149 137 161 137 133 162 184 174 180 175 172 156 145 182 171 150 165 170 135 105 84 108 146
164 167 173 175 169 168 164 170 152 161 151 152 132 118 106 153 161 156 160 155 144 126 156 169 165 161 168 181 178 153 181 150
170 172 175 169 171 175 173 175 157 177 167 163 152 144 140 145 147 147 149 155 177 161 164 189 183 190 189 186 158 176 158 142
171 174 173 171 173 177 175 176 169 184 181 169 172 166 163 154 149 158 162 169 175 176 182 198 164 201 178 189 180 186 179 167